• Processing (Info)

  • MPEC 2024-P83 : 2024 PL1

    The following Minor Planet Electronic Circular may be linked-to from your own Web pages, but must not otherwise be redistributed electronically.

    A form allowing access to any MPEC is at the bottom of this page.


    Read MPEC 2024-P82 Read MPEC 2024-P84


    M.P.E.C. 2024-P83                                Issued 2024 August 6, 23:56 UT
    
         The Minor Planet Electronic Circulars contain information on unusual
             minor planets, routine data on comets and natural satellites,
             and occasional editorial announcements.  They are published
        on behalf of Division F of the International Astronomical Union by the
              Minor Planet Center, Smithsonian Astrophysical Observatory,
                              Cambridge, MA 02138, U.S.A.
    			  
                 Prepared using the Tamkin Foundation Computer Network
    
                                  MPC@CFA.HARVARD.EDU
                URL https://www.minorplanetcenter.net/    ISSN 1523-6714
    
                                    2024 PL1                                 
    
    
    Observations:
         K24P01L  C2024 07 26.28748717 33 03.432+07 38 48.96         21.19GVEP083F51
         K24P01L  C2024 07 26.28798917 33 03.369+07 38 49.03         22.32GVEP083F51
         K24P01L  C2024 07 26.28850117 33 03.319+07 38 48.99         21.86GVEP083F51
         K24P01L  C2024 07 28.28499117 29 22.676+07 21 11.45         21.25GVEP083F51
         K24P01L  C2024 07 28.28570017 29 22.601+07 21 10.86         21.19GVEP083F51
         K24P01L  C2024 07 28.28641517 29 22.506+07 21 10.71         21.31GVEP083F51
         K24P01L  C2024 07 28.28714917 29 22.426+07 21 10.25               VEP083F51
         K24P01L* C2024 08 05.30096617 13 55.988+05 23 31.71         21.05wXEP083F52
         K24P01L  C2024 08 05.31963717 13 53.428+05 23 09.23         21.58wXEP083F52
         K24P01L  C2024 08 05.32892417 13 52.149+05 22 58.14         20.89wXEP083F52
         K24P01L  C2024 08 05.43779417 13 37.547+05 20 44.64         20.49GVEP083F51
         K24P01L  C2024 08 05.43843917 13 37.452+05 20 43.88         20.78GVEP083F51
         K24P01L pC2024 08 05.89381517 12 43.39 +05 11 04.9          21.6 GXEP083L01
         K24P01L pC2024 08 05.89943417 12 42.65 +05 10 58.1          21.1 GXEP083L01
         K24P01L 6C2024 08 05.98366 17 12 31.86 +05 09 16.6          20.3 GVEP083Z84
         K24P01L 6C2024 08 05.99364 17 12 30.57 +05 09 03.4          20.9 GVEP083Z84
         K24P01L KC2024 08 06.12140117 12 16.32 +05 06 20.6          21.0 GVEP083H21
         K24P01L KC2024 08 06.12709017 12 15.53 +05 06 13.6          20.9 GVEP083H21
         K24P01L KC2024 08 06.13277717 12 14.75 +05 06 06.1          21.0 GVEP083H21
         K24P01L KB2024 08 06.15644 17 12 11.863+05 05 36.46         20.8 RZEP083H36
         K24P01L  C2024 08 06.16848517 12 10.621+05 05 23.73         20.1 GVEP083H01
         K24P01L KB2024 08 06.17172 17 12 09.790+05 05 16.33         20.6 RZEP083H36
         K24P01L  C2024 08 06.17528617 12 09.685+05 05 14.89         20.8 GVEP083H01
         K24P01L  C2024 08 06.18240917 12 08.717+05 05 05.92         20.9 GVEP083H01
         K24P01L  C2024 08 06.19210517 12 07.380+05 04 53.24         21.6 GVEP083H01
    
    Observer details:
    F51 Pan-STARRS 1, Haleakala.  Observers J. Herman, T. Lowe, P. Minguez, A.
        Schultz, I. Smith.  Measurers K. Chambers, T. de Boer, J. Fairlamb, H.
        Gao, M. Huber, C.-C. Lin, E. Magnier, Y. Ramanjooloo, R. Wainscoat, R.
        Weryk.  1.8-m Ritchey-Chretien + CCD.
    F52 Pan-STARRS 2, Haleakala.  Observers J. Herman, T. Lowe, P. Minguez, A.
        Schultz, I. Smith.  Measurers K. Chambers, T. de Boer, J. Fairlamb, H.
        Gao, M. Huber, C.-C. Lin, E. Magnier, Y. Ramanjooloo, R. Wainscoat, R.
        Weryk.  1.8-m Ritchey-Chretien + CCD.
    H01 Magdalena Ridge Observatory, Socorro.  Observers W. H. Ryan, E. V. Ryan.
        Measurer W. H. Ryan.  2.4-m f/8.9 Ritchey-Chretien + CCD.
    H21 Astronomical Research Observatory, Westfield.  Observer R. Holmes.
        Measurers T. Linder, R. Holmes.  0.81-m f/4.0 astrograph + CCD.
    H36 Sandlot Observatory, Scranton.  Observer G. Hug.  0.56-m f/4.25 reflector
        + CMO.
    L01 Visnjan Observatory, Tican.  Observers K. Korlevic, I. Forkapa, L.
        Ivanovic, E. Matika, I. Novotny, I. Paleka, E. Pettarin, M. Spoler.
        Measurer I. Paleka.  1.0-m f/2.9 reflector + CCD.
    Z84 Calar Alto-Schmidt.  Observers M. Micheli, R. Kresken.  Measurers R.
        Kresken, M. Micheli, F. Ocana, L. Conversi.  0.8-m f/3 Schmidt + CCD.
    
    Orbital elements:
    2024 PL1                                                 Earth MOID = 0.0089 AU
    Epoch 2024 Oct. 17.0 TT = JDT 2460600.5                 MPC                     
    M   7.68048              (2000.0)            P               Q                  
    n   0.27208310     Peri.  204.78379     +0.99572122     +0.03768081             
    a   2.3586762      Node   152.64989     -0.01626748     +0.97030290             
    e   0.5910794      Incl.   10.58281     -0.09096497     +0.23894025             
    P   3.62           H   22.55          G   0.15           U   8                  
    Residuals in seconds of arc
    240726 F51  0.0   0.3-    240805 F52  0.0   0.2+    240806 H21  0.3-  0.1+
    240726 F51  0.1-  0.0     240805 F51  0.1+  0.0     240806 H36  0.3+  0.4+
    240726 F51  0.1+  0.2+    240805 F51  0.0   0.0     240806 H01  0.0   0.1-
    240728 F51  0.2-  0.0     240805 L01  0.8-  0.5-    240806 H36  0.4+  0.0
    240728 F51  0.0   0.1-    240805 L01  0.7-  0.2-    240806 H01  0.1-  0.2-
    240728 F51  0.0   0.1+    240805 Z84  0.1+  0.2+    240806 H01  0.1+  0.0
    240728 F51  0.1+  0.1+    240805 Z84  0.5+  0.2-    240806 H01  0.0   0.2-
    240805 F52  0.1-  0.0     240806 H21  0.0   0.0
    240805 F52  0.1+  0.0     240806 H21  0.2-  0.3+
    
    Ephemeris:
    2024 PL1                 a,e,i = 2.36, 0.59, 11                  q = 0.9645
    Date    TT    R. A. (2000) Decl.     Delta      r    Elong.  Phase     V
    2024 07 07    18 05 04.2 +07 37 30   0.3738  1.3440   146.4    24.8    22.2
    ...
    2024 07 22    17 40 44.8 +08 03 40   0.2796  1.2280   134.4    36.2    21.7
    ...
    2024 07 30    17 26 10.0 +07 02 48   0.2355  1.1702   126.3    44.3    21.5
    ...
    2024 08 05    17 14 32.7 +05 29 42   0.2040  1.1297   119.8    51.2    21.3
    2024 08 06    17 12 31.7 +05 09 21   0.1988  1.1232   118.6    52.4    21.2
    2024 08 07    17 10 28.9 +04 47 26   0.1936  1.1168   117.5    53.7    21.2
    ...
    2024 08 13    16 57 15.4 +01 57 30   0.1630  1.0804   110.2    61.6    21.0
    ...
    2024 08 21    16 34 04.1 -04 19 16   0.1230  1.0379    99.0    74.3    20.7
    ...
    2024 09 05    14 22 52.3 -35 08 10   0.06425 0.9821    64.3   112.3    20.9
    
    A. U. Tomatic                (C) Copyright 2024 MPC           M.P.E.C. 2024-P83
    


    Read MPEC 2024-P82 Read MPEC 2024-P84


    MPEC number:

    Enter an MPEC number in one of the following forms:

    • 1997-B01 (the full form)
    • J97B01 (the packed version of the full form)
    • B01 (the abbreviated form)